TimeEDT,TemperatureF,Dew PointF,Humidity,Sea Level PressureIn,VisibilityMPH,Wind Direction,Wind SpeedMPH,Gust SpeedMPH,PrecipitationIn,Events,Conditions,WindDirDegrees,DateUTC
12:53 AM,60.1,57.9,93,30.03,10.0,Calm,Calm,-,N/A,,Mostly Cloudy,0,2013-04-01 04:53:00
1:53 AM,60.1,57.9,93,30.02,10.0,Calm,Calm,-,N/A,,Mostly Cloudy,0,2013-04-01 05:53:00
2:53 AM,62.1,55.9,80,30.01,10.0,Calm,Calm,-,N/A,,Mostly Cloudy,0,2013-04-01 06:53:00
3:53 AM,62.1,55.0,78,30.00,10.0,South,3.5,-,N/A,,Mostly Cloudy,190,2013-04-01 07:53:00
4:53 AM,61.0,55.0,81,29.99,10.0,SSW,3.5,-,N/A,,Mostly Cloudy,210,2013-04-01 08:53:00
5:53 AM,62.1,55.0,78,30.00,10.0,South,3.5,-,N/A,,Scattered Clouds,190,2013-04-01 09:53:00
6:53 AM,61.0,55.9,83,30.02,10.0,SSW,5.8,-,N/A,,Scattered Clouds,200,2013-04-01 10:53:00
7:53 AM,62.1,57.9,86,30.03,10.0,SSW,3.5,-,N/A,,Scattered Clouds,200,2013-04-01 11:53:00
8:53 AM,68.0,60.1,76,30.04,10.0,SSW,9.2,-,N/A,,Scattered Clouds,210,2013-04-01 12:53:00
9:53 AM,72.0,62.1,71,30.02,10.0,SSW,12.7,-,N/A,,Scattered Clouds,210,2013-04-01 13:53:00
10:53 AM,78.1,60.1,54,30.01,10.0,SW,11.5,20.7,N/A,,Scattered Clouds,230,2013-04-01 14:53:00
11:53 AM,79.0,60.1,52,30.00,10.0,SW,11.5,20.7,N/A,,Scattered Clouds,220,2013-04-01 15:53:00
12:53 PM,80.1,57.9,47,29.99,10.0,SW,18.4,24.2,N/A,,Mostly Cloudy,230,2013-04-01 16:53:00
1:53 PM,82.9,60.1,46,29.96,10.0,SW,16.1,-,N/A,,Scattered Clouds,230,2013-04-01 17:53:00
2:53 PM,84.0,57.9,41,29.94,10.0,WSW,13.8,-,N/A,,Mostly Cloudy,240,2013-04-01 18:53:00
3:00 PM,-9999,-9999,N/A,-9999,-9999.0,North,-9999.0,-,N/A,,Unknown,0,2013-04-01 19:00:00
3:53 PM,86.0,57.0,37,29.92,10.0,WSW,17.3,27.6,N/A,,Scattered Clouds,250,2013-04-01 19:53:00
4:53 PM,84.9,55.9,37,29.92,10.0,WSW,18.4,25.3,N/A,,Scattered Clouds,250,2013-04-01 20:53:00
5:53 PM,82.9,55.0,38,29.92,10.0,West,20.7,26.5,N/A,,Scattered Clouds,260,2013-04-01 21:53:00
6:53 PM,81.0,55.9,42,29.93,10.0,West,16.1,-,N/A,,Scattered Clouds,270,2013-04-01 22:53:00
7:53 PM,75.9,55.9,50,29.95,10.0,WSW,8.1,-,N/A,,Partly Cloudy,240,2013-04-01 23:53:00
8:53 PM,73.9,57.0,55,29.97,10.0,SW,8.1,-,N/A,,Partly Cloudy,230,2013-04-02 00:53:00
9:53 PM,70.0,57.9,65,29.98,10.0,SW,3.5,-,N/A,,Clear,230,2013-04-02 01:53:00
10:53 PM,69.1,59.0,70,30.00,10.0,WSW,8.1,-,N/A,,Clear,240,2013-04-02 02:53:00
11:53 PM,66.9,60.1,79,30.00,10.0,WSW,9.2,-,N/A,,Clear,240,2013-04-02 03:53:00